sat.trackr.live / text

‹ back to catalog

STARLINK-37409

NORAD 68819 · 2026-089T

PAYLOAD ACTIVE UNKNOWN

§ Identity

Operator
Country
US
Launch date
2026-04-23
Launch site
AFWTR
Launch vehicle
Mass (kg)
RCS (m²)

Purposes: comms

External: N2YO · Heavens-Above · Gunter

§ Orbital elements

Epoch: 2026-09-19T08:15:31.805568Z

Period
93.91 min
Inclination
97.2869°
Eccentricity
0.0001415
Mean motion
15.33461040 rev/d
Perigee alt
464.5 km
Apogee alt
466.5 km
Semi-major
6,843.6 km
B*
3.4511e-4
RAAN
108.1493°
Arg perigee
94.3378°
Mean anomaly
265.8027°
Rev number
2,308

§ Raw data

STARLINK-374091 68819U 26089T   26262.34411812  .00011088  00000+0  34511-3 0  99932 68819  97.2869 108.1493 0001415  94.3378 265.8027 15.33461040 23086

JSON: /api/v1/satellites/68819 · /tle

For live sub-satellite position, see the globe view (requires WebGL).

§ Visibility from observer

Set your observer location to see the next 7 days of passes ≥ 10°. The values pass through the URL so the page stays shareable.

No JS? Fill the form by hand. The geolocation button needs JavaScript.